This is the latest recevied weather packets stored in our database for station/object 2E0RGX-13. If no packets are shown the sender has not sent any weather packets the latest 10 day(s).
| Time | Temp. | Humidity | Pressure | Rain* | Wind** | Luminosity | Snow |
|---|---|---|---|---|---|---|---|
| 1777142683 | 18.89° C | 26% | 1017.8 hPa | 0 mm | - | 0 W/m² | - |
| 1777142379 | 18.89° C | 24% | 1017.7 hPa | 0 mm | - | 0 W/m² | - |
| 1777142075 | 19.44° C | 23% | 1017.6 hPa | 0 mm | - | 0 W/m² | - |
| 1777141771 | 19.44° C | 22% | 1017.8 hPa | 0 mm | - | 0 W/m² | - |
| 1777141467 | 19.44° C | 22% | 1017.6 hPa | 0 mm | - | 0 W/m² | - |
| 1777141163 | 20° C | 22% | 1017.5 hPa | 0 mm | - | 0 W/m² | - |
| 1777140859 | 20° C | 23% | 1017.6 hPa | 0 mm | - | 0 W/m² | - |
| 1777140555 | 20° C | 22% | 1017.6 hPa | 0 mm | - | 0 W/m² | - |
| 1777140251 | 20° C | 23% | 1017.4 hPa | 0 mm | - | 0 W/m² | - |
| 1777139947 | 20.56° C | 22% | 1017.6 hPa | 0 mm | - | 0 W/m² | - |
| 1777139643 | 20.56° C | 22% | 1017.5 hPa | 0 mm | - | 0 W/m² | - |
| 1777139340 | 21.11° C | 21% | 1017.3 hPa | 0 mm | - | 0 W/m² | - |
| 1777139036 | 20.56° C | 20% | 1017.4 hPa | 0 mm | - | 1 W/m² | - |
| 1777138731 | 20.56° C | 20% | 1017.4 hPa | 0 mm | - | 1 W/m² | - |
| 1777138427 | 20.56° C | 19% | 1017.4 hPa | 0 mm | - | 1 W/m² | - |
| 1777138123 | 20.56° C | 16% | 1017.4 hPa | 0 mm | - | 1 W/m² | - |
| 1777137819 | 21.11° C | 16% | 1017.5 hPa | 0 mm | - | 1 W/m² | - |
| 1777137515 | 21.67° C | 15% | 1017.1 hPa | 0 mm | - | 1 W/m² | - |
| 1777137211 | 21.11° C | 15% | 1017.3 hPa | 0 mm | - | 1 W/m² | - |
| 1777136907 | 21.11° C | 15% | 1017.3 hPa | 0 mm | - | 1 W/m² | - |
| 1777136603 | 21.67° C | 16% | 1017.2 hPa | 0 mm | - | 1 W/m² | - |
| 1777136299 | 21.11° C | 16% | 1017 hPa | 0 mm | - | 1 W/m² | - |
| 1777135995 | 21.11° C | 16% | 1017.1 hPa | 0 mm | - | 1 W/m² | - |
| 1777135692 | 21.67° C | 16% | 1017 hPa | 0 mm | - | 1 W/m² | - |
| 1777135388 | 22.22° C | 15% | 1017.2 hPa | 0 mm | - | 1 W/m² | - |
* Rain latest hour (hover to see other rain measurements)
** Current wind speed in m/s (hover to see current wind gust speed)